Regional Weather Roundup
Issued by NWS Sterling, VA

Home | Current Version | Previous Version | Text Only | Print | Product List | Glossary Off
Versions: 1 2 3 4 5 6 7 8 9 10 11 12 13 14 15 16 17 18 19 20 21 22 23 24 25 26 27 28

000
ASUS41 KLWX 231611
RWRLWX

REGIONAL WEATHER ROUNDUP
NATIONAL WEATHER SERVICE BALTIMORE MD/WASHINGTON DC
1200 PM EDT WED AUG 23 2017

Note: "FAIR" indicates few or no clouds below 12,000 feet
with no significant weather and/or obstructions to visibility.
 TC=TEMPERATURE CELSIUS

 * =Non NWS site. Station does not report precipitation (e.g. rain,
    snow, etc.), thunder, or fog.

DCZ001-MDZ009-015-VAZ040>042-051-053>054-231700-
WASHINGTON METRO

CITY           SKY/WX    TMP DP  RH WIND       PRES   REMARKS
WASHINGTON NAT CLOUDY    80  67  64 N9        29.89S
DULLES         PTSUNNY   80  66  62 N9        29.91R
ANDREWS AFB    PTSUNNY   79  67  67 N10       29.89R
FT BELVOIR     CLOUDY    79  67  65 NW8       29.89S
QUANTICO       CLOUDY    78  70  76 NW6       29.90R
COLLEGE PARK*  CLOUDY    79  66  65 N7        29.89S
LEESBURG*      PTSUNNY   81  70  69 N12       29.93R
MANASSAS*      CLOUDY    78  68  71 N9        29.91R
GAITHERSBURG*  PTSUNNY   77  64  64 VRB5      29.92S

$$

MDZ006>007-011-014-231700-
BALTIMORE METRO

CITY           SKY/WX    TMP DP  RH WIND       PRES   REMARKS
BWI AIRPORT    PTSUNNY   80  68  66 N9        29.88S
MD SCIENCE CTR   N/A     81  62  52 MISG      29.88F
MARTIN STATE   PTSUNNY   81  70  69 CALM      29.90R
ANNAPOLIS      CLOUDY    82  71  69 N5        29.88R
FORT MEADE*    CLOUDY    79  68  69 N3        29.91S

$$

MDZ012-015-019>023-231700-
MARYLAND EASTERN SHORE

CITY           SKY/WX    TMP DP  RH WIND       PRES   REMARKS
OCEAN CITY     PTSUNNY   82  74  76 E7        29.86S
SALISBURY      PTSUNNY   85  71  63 NW7       29.85S HX  90
BAY BRIDGE AP* CLOUDY    79  66  65 N10       29.88S
CAMBRIDGE*     PTSUNNY   81  73  78 NW8       29.87R
EASTON*        PTSUNNY   81  68  65 N6        29.91R

$$

MDZ017>025-231700-
SOUTHERN MARYLAND

CITY           SKY/WX    TMP DP  RH WIND       PRES   REMARKS
PATUXENT RIVER CLOUDY    80  72  76 N8        29.88R
ST INIGOES     PTSUNNY   82  72  71 NE5       29.87R
LEONARDTOWN*   CLOUDY    79  68  69 N3        29.90R

$$

MDZ003>005-231700-
NORTH CENTRAL MARYLAND

CITY           SKY/WX    TMP DP  RH WIND       PRES   REMARKS
FREDERICK*     PTSUNNY   81  61  50 NE5       29.94R
HAGERSTOWN APT MOSUNNY   76  60  57 W10       29.94R
WESTMINSTER*   MOSUNNY   79  61  53 N8        29.92S

$$

MDZ501>502-231700-
WESTERN MARYLAND

CITY           SKY/WX    TMP DP  RH WIND       PRES   REMARKS
OAKLAND*       MOSUNNY   64  55  72 W7        30.00S
CUMBERLAND*    MOSUNNY   77  61  57 NW6       29.98S

$$

VAZ025>031-231700-
SHENANDOAH VALLEY

CITY           SKY/WX    TMP DP  RH WIND       PRES   REMARKS
WINCHESTER*    PTSUNNY   75  61  60 NW5       29.93S
FRONT ROYAL*   CLOUDY    77  63  61 N5        29.92S
LURAY*         PTSUNNY   77  64  65 NE3       29.93S
NEW MARKET*    PTSUNNY   81  61  51 N5        29.92S
STAUNTON*      CLOUDY    76  65  70 NE5       29.96S
WAYNESBORO*    CLOUDY    76  69  78 CALM      29.96S

$$

WVZ021-048>050-054>055-231700-
EASTERN WEST VIRGINIA PANHANDLE

CITY           SKY/WX    TMP DP  RH WIND       PRES   REMARKS
MARTINSBURG    MOSUNNY   79  59  50 NW6       29.92S
PETERSBURG*    PTSUNNY   80  66  62 W5        29.94S

$$

VAZ036>039-050-231700-
CENTRAL FOOTHILLS

CITY           SKY/WX    TMP DP  RH WIND       PRES   REMARKS
CHARLOTTESVILL CLOUDY    78  71  79 E6        29.92R
CULPEPER*      CLOUDY    78  67  70 N8        29.93R
ORANGE*        CLOUDY    73  68  83 N5        29.92R
GORDONSVILLE*  CLOUDY    75  70  83 CALM      29.92R
WARRENTON*     CLOUDY    78  65  64 N7        29.91R

$$

VAZ055>057-231700-
NORTH AND CENTRAL PIEDMONT

CITY           SKY/WX    TMP DP  RH WIND       PRES   REMARKS
FREDERICKSBRG* CLOUDY    76  69  79 NW7       29.90R
STAFFORD*      CLOUDY    74  71  89 N6        29.95R

$$

NCZ024-NYZ072-PAZ021-071-VAZ022-071-231700-
OTHER REGIONAL OBSERVATIONS

CITY           SKY/WX    TMP DP  RH WIND       PRES   REMARKS
NEW YORK CITY  SUNNY     77  54  44 VRB3      29.87F
PHILADELPHIA   PTSUNNY   81  54  39 VRB6      29.87S
PITTSBURGH     MOSUNNY   73  53  49 NW6       29.98S
ROANOKE        CLOUDY    79  68  69 SW7       29.97R
RICHMOND       PTSUNNY   84  73  69 NE8       29.88R HX  90
RALEIGH        MOSUNNY   89  75  63 W5        29.90S HX  99

$$

ANZ530>537-231700-
MARINE OBSERVATIONS

STATION/POSITION TIME  TEMP    WIND        PRES
                       AIR SEA DIR/SP/G
                 (UTC) (F)     (DEG/KT/KT) (MB)
THOMAS PT LIGHT  1600   78 81   10/ 12/ 13   N/A
BALT KEY BRIDGE  1542   78      10/  7/  9 1011.8R
COVE POINT       1542   78      10/ 11/ 13 1012.4R
LEWISETTA        1542   82 82   10/  4/  6 1011.5R
SOLOMONS ISLAND  1542   79 82  360/  9/ 11   N/A
PINEY POINT      1542          340/  7/  8   N/A

$$





USA.gov is the U.S. government's official web portal to all federal, state and local government web resources and services.